| time (UTC) | temp F | wind direction | speed knots | gust knots | rain 1hr in | rain 24hr in | rain mn in | humidity % | barometer mb |
| 20260504033515 | 39 | 286 | 0.0 | 0.0 | 0.00 | 0.00 | 0.00 | 80 | 1018.3 |
| 20260504033012 | 39 | 286 | 0.0 | 0.0 | 0.00 | 0.00 | 0.00 | 82 | 1018.1 |
| 20260504032509 | 39 | 286 | 0.0 | 0.0 | 0.00 | 0.00 | 0.00 | 81 | 1018.1 |
| 20260504032005 | 39 | 286 | 0.0 | 0.0 | 0.00 | 0.00 | 0.00 | 79 | 1018.0 |
| 20260504031502 | 39 | 286 | 0.0 | 0.0 | 0.00 | 0.00 | 0.00 | 79 | 1018.1 |
| 20260504030959 | 39 | 286 | 0.0 | 0.0 | 0.00 | 0.00 | 0.00 | 80 | 1018.0 |
| 20260504030456 | 39 | 286 | 0.0 | 0.0 | 0.00 | 0.00 | 0.00 | 76 | 1017.8 |
| 20260504025951 | 39 | 286 | 0.0 | 0.0 | 0.00 | 0.00 | 0.00 | 79 | 1018.2 |
| 20260504025449 | 40 | 286 | 0.0 | 0.0 | 0.00 | 0.00 | 0.00 | 78 | 1018.2 |
| 20260504024946 | 40 | 286 | 0.0 | 0.0 | 0.00 | 0.00 | 0.00 | 80 | 1018.3 |
| 20260504024443 | 40 | 286 | 0.0 | 0.0 | 0.00 | 0.00 | 0.00 | 78 | 1018.4 |
| 20260504023940 | 40 | 286 | 0.0 | 0.0 | 0.00 | 0.00 | 0.00 | 79 | 1018.1 |
| 20260504023436 | 40 | 286 | 0.0 | 0.0 | 0.00 | 0.00 | 0.00 | 79 | 1018.2 |
| 20260504022932 | 40 | 286 | 0.0 | 0.0 | 0.00 | 0.00 | 0.00 | 78 | 1018.1 |
| 20260504022428 | 41 | 286 | 0.0 | 0.0 | 0.00 | 0.00 | 0.00 | 78 | 1018.2 |
| 20260504021925 | 41 | 286 | 0.0 | 0.0 | 0.00 | 0.00 | 0.00 | 77 | 1018.3 |
| 20260504021422 | 41 | 286 | 0.0 | 0.0 | 0.00 | 0.00 | 0.00 | 75 | 1018.3 |
| 20260504020920 | 42 | 286 | 0.0 | 0.0 | 0.00 | 0.00 | 0.00 | 74 | 1018.1 |
| 20260504020416 | 42 | 286 | 0.0 | 0.0 | 0.00 | 0.00 | 0.00 | 77 | 1018.0 |
| 20260504015913 | 42 | 286 | 0.0 | 0.0 | 0.00 | 0.00 | 0.00 | 76 | 1017.9 |
| 20260504015409 | 42 | 286 | 0.0 | 0.0 | 0.00 | 0.00 | 0.00 | 74 | 1018.0 |
| 20260504014905 | 43 | 286 | 0.0 | 0.0 | 0.00 | 0.00 | 0.00 | 72 | 1017.8 |
| 20260504014401 | 43 | 286 | 0.0 | 0.0 | 0.00 | 0.00 | 0.00 | 71 | 1017.7 |
| 20260504013853 | 43 | 286 | 0.0 | 0.0 | 0.00 | 0.00 | 0.00 | 70 | 1017.7 |
| 20260504013351 | 44 | 286 | 0.0 | 0.0 | 0.00 | 0.00 | 0.00 | 72 | 1017.7 |
| 20260504012847 | 44 | 286 | 0.0 | 0.0 | 0.00 | 0.00 | 0.00 | 72 | 1017.5 |
| 20260504012345 | 44 | 286 | 0.0 | 0.0 | 0.00 | 0.00 | 0.00 | 70 | 1017.7 |
| 20260504011842 | 45 | 286 | 0.0 | 0.0 | 0.00 | 0.00 | 0.00 | 65 | 1017.5 |
| 20260504011338 | 45 | 286 | 0.0 | 0.0 | 0.00 | 0.00 | 0.00 | 65 | 1017.3 |
| 20260504010835 | 45 | 286 | 0.0 | 0.0 | 0.00 | 0.00 | 0.00 | 56 | 1017.4 |
| 20260504010330 | 46 | 286 | 0.0 | 0.0 | 0.00 | 0.00 | 0.00 | 63 | 1017.4 |
| 20260504005827 | 46 | 286 | 0.0 | 0.0 | 0.00 | 0.00 | 0.00 | 62 | 1017.1 |
| 20260504005324 | 47 | 286 | 0.0 | 0.0 | 0.00 | 0.00 | 0.00 | 58 | 1017.1 |
| 20260504004822 | 47 | 286 | 0.0 | 0.0 | 0.00 | 0.00 | 0.00 | 51 | 1017.3 |
| 20260504004319 | 47 | 286 | 0.0 | 0.0 | 0.00 | 0.00 | 0.00 | 52 | 1017.4 |
| 20260504003815 | 48 | 286 | 0.0 | 0.0 | 0.00 | 0.00 | 0.00 | 52 | 1017.2 |
| 20260504003312 | 48 | 286 | 0.0 | 0.0 | 0.00 | 0.00 | 0.00 | 52 | 1017.1 |
| 20260504002808 | 49 | 286 | 0.0 | 0.0 | 0.00 | 0.00 | 0.00 | 48 | 1017.2 |
| 20260504002306 | 49 | 286 | 0.0 | 0.0 | 0.00 | 0.00 | 0.00 | 46 | 1017.2 |
| 20260504001803 | 50 | 286 | 0.0 | 0.0 | 0.00 | 0.00 | 0.00 | 48 | 1017.2 |
| 20260504001300 | 51 | 286 | 0.0 | 0.0 | 0.00 | 0.00 | 0.00 | 46 | 1017.1 |
| 20260504000757 | 51 | 286 | 0.0 | 0.0 | 0.00 | 0.00 | 0.00 | 42 | 1017.1 |
| 20260504000255 | 52 | 286 | 0.0 | 0.0 | 0.00 | 0.00 | 0.00 | 42 | 1017.1 |
| 20260503235753 | 53 | 286 | 0.0 | 0.0 | 0.00 | 0.00 | 0.00 | 39 | 1017.2 |
| 20260503235250 | 54 | 286 | 0.0 | 0.9 | 0.00 | 0.00 | 0.00 | 38 | 1016.9 |
| 20260503234747 | 55 | 286 | 0.0 | 0.9 | 0.00 | 0.00 | 0.00 | 36 | 1017.0 |
| 20260503234245 | 55 | 286 | 0.0 | 1.7 | 0.00 | 0.00 | 0.00 | 34 | 1017.1 |
| 20260503233742 | 55 | 286 | 0.9 | 1.7 | 0.00 | 0.00 | 0.00 | 35 | 1017.1 |
| 20260503233238 | 56 | 295 | 0.0 | 1.7 | 0.00 | 0.00 | 0.00 | 35 | 1017.1 |
| 20260503232735 | 56 | 290 | 0.9 | 1.7 | 0.00 | 0.00 | 0.00 | 31 | 1017.3 |
| 20260503232232 | 57 | 313 | 0.0 | 2.6 | 0.00 | 0.00 | 0.00 | 30 | 1017.1 |
| 20260503231730 | 57 | 277 | 2.6 | 3.5 | 0.00 | 0.00 | 0.00 | 30 | 1017.0 |
| 20260503231226 | 57 | 310 | 2.6 | 3.5 | 0.00 | 0.00 | 0.00 | 30 | 1017.4 |
| 20260503230722 | 58 | 301 | 0.9 | 2.6 | 0.00 | 0.00 | 0.00 | 31 | 1017.2 |
| 20260503230220 | 58 | 316 | 1.7 | 2.6 | 0.00 | 0.00 | 0.00 | 32 | 1017.0 |
| 20260503225717 | 57 | 280 | 1.7 | 1.7 | 0.00 | 0.00 | 0.00 | 30 | 1017.1 |
| 20260503225212 | 58 | 266 | 2.6 | 5.2 | 0.00 | 0.00 | 0.00 | 29 | 1017.2 |
| 20260503224709 | 60 | 285 | 1.7 | 2.6 | 0.00 | 0.00 | 0.00 | 31 | 1017.1 |
| 20260503224207 | 60 | 15 | 1.7 | 2.6 | 0.00 | 0.00 | 0.00 | 29 | 1017.1 |
| 20260503223704 | 60 | 20 | 0.9 | 2.6 | 0.00 | 0.00 | 0.00 | 29 | 1017.0 |
| 20260503223201 | 59 | 346 | 1.7 | 5.2 | 0.00 | 0.00 | 0.00 | 29 | 1017.1 |
| 20260503222658 | 60 | 296 | 2.6 | 2.6 | 0.00 | 0.00 | 0.00 | 30 | 1017.2 |
| 20260503222156 | 61 | 277 | 0.9 | 2.6 | 0.00 | 0.00 | 0.00 | 30 | 1017.0 |
| 20260503221654 | 61 | 282 | 1.7 | 3.5 | 0.00 | 0.00 | 0.00 | 30 | 1017.2 |
| 20260503221151 | 61 | 332 | 0.9 | 1.7 | 0.00 | 0.00 | 0.00 | 28 | 1016.9 |
| 20260503220648 | 61 | 304 | 1.7 | 1.7 | 0.00 | 0.00 | 0.00 | 29 | 1017.1 |
| 20260503220144 | 60 | 290 | 2.6 | 2.6 | 0.00 | 0.00 | 0.00 | 27 | 1017.2 |
| 20260503215641 | 61 | 57 | 1.7 | 1.7 | 0.00 | 0.00 | 0.00 | 25 | 1017.2 |
| 20260503215137 | 60 | 298 | 0.9 | 2.6 | 0.00 | 0.00 | 0.00 | 27 | 1017.2 |
| 20260503214637 | 60 | 263 | 0.9 | 1.7 | 0.00 | 0.00 | 0.00 | 27 | 1017.3 |
| 20260503214132 | 61 | 287 | 0.9 | 1.7 | 0.00 | 0.00 | 0.00 | 25 | 1017.2 |
| 20260503213631 | 61 | 311 | 1.7 | 5.2 | 0.00 | 0.00 | 0.00 | 28 | 1017.4 |
| 20260503213127 | 62 | 277 | 1.7 | 2.6 | 0.00 | 0.00 | 0.00 | 28 | 1017.3 |
| 20260503212625 | 61 | 253 | 4.3 | 5.2 | 0.00 | 0.00 | 0.00 | 26 | 1017.5 |
| 20260503212122 | 60 | 292 | 0.9 | 2.6 | 0.00 | 0.00 | 0.00 | 29 | 1017.4 |
| 20260503211620 | 61 | 283 | 2.6 | 3.5 | 0.00 | 0.00 | 0.00 | 26 | 1017.5 |
| 20260503211115 | 61 | 295 | 2.6 | 2.6 | 0.00 | 0.00 | 0.00 | 26 | 1017.2 |
| 20260503210612 | 60 | 149 | 0.9 | 2.6 | 0.00 | 0.00 | 0.00 | 24 | 1017.5 |
| 20260503210109 | 62 | 288 | 1.7 | 1.7 | 0.00 | 0.00 | 0.00 | 26 | 1017.4 |
| 20260503205604 | 61 | 291 | 0.9 | 3.5 | 0.00 | 0.00 | 0.00 | 27 | 1017.7 |
| 20260503205101 | 59 | 309 | 2.6 | 6.1 | 0.00 | 0.00 | 0.00 | 29 | 1017.5 |
| 20260503204558 | 59 | 299 | 4.3 | 6.1 | 0.00 | 0.00 | 0.00 | 29 | 1017.7 |
| 20260503204055 | 61 | 287 | 1.7 | 9.6 | 0.00 | 0.00 | 0.00 | 30 | 1017.8 |
| 20260503203552 | 59 | 285 | 1.7 | 3.5 | 0.00 | 0.00 | 0.00 | 29 | 1017.8 |
| 20260503203049 | 60 | 294 | 1.7 | 3.5 | 0.00 | 0.00 | 0.00 | 28 | 1018.0 |
| 20260503202547 | 61 | 281 | 3.5 | 5.2 | 0.00 | 0.00 | 0.00 | 28 | 1018.0 |
| 20260503202045 | 60 | 321 | 2.6 | 2.6 | 0.00 | 0.00 | 0.00 | 31 | 1017.8 |
| 20260503201543 | 61 | 297 | 2.6 | 5.2 | 0.00 | 0.00 | 0.00 | 28 | 1018.1 |
| 20260503201040 | 61 | 313 | 2.6 | 7.0 | 0.00 | 0.00 | 0.00 | 29 | 1018.3 |
| 20260503200536 | 59 | 268 | 3.5 | 5.2 | 0.00 | 0.00 | 0.00 | 30 | 1018.2 |
| 20260503200033 | 61 | 358 | 2.6 | 5.2 | 0.00 | 0.00 | 0.00 | 29 | 1018.3 |
| 20260503195530 | 59 | 280 | 1.7 | 3.5 | 0.00 | 0.00 | 0.00 | 32 | 1018.1 |
| 20260503195027 | 59 | 278 | 3.5 | 7.0 | 0.00 | 0.00 | 0.00 | 30 | 1018.4 |
| 20260503194524 | 59 | 309 | 2.6 | 2.6 | 0.00 | 0.00 | 0.00 | 31 | 1018.6 |
| 20260503194023 | 60 | 278 | 0.9 | 3.5 | 0.00 | 0.00 | 0.00 | 29 | 1018.6 |
| 20260503193521 | 59 | 346 | 0.9 | 2.6 | 0.00 | 0.00 | 0.00 | 29 | 1018.8 |
| 20260503193016 | 58 | 305 | 1.7 | 2.6 | 0.00 | 0.00 | 0.00 | 29 | 1018.8 |
| 20260503192512 | 57 | 337 | 1.7 | 3.5 | 0.00 | 0.00 | 0.00 | 30 | 1018.8 |
| 20260503192008 | 57 | 295 | 2.6 | 3.5 | 0.00 | 0.00 | 0.00 | 31 | 1018.9 |
| 20260503191505 | 56 | 300 | 2.6 | 6.1 | 0.00 | 0.00 | 0.00 | 30 | 1018.9 |
| 20260503191002 | 56 | 290 | 3.5 | 5.2 | 0.00 | 0.00 | 0.00 | 30 | 1019.3 |
| 20260503190459 | 58 | 257 | 1.7 | 7.8 | 0.00 | 0.00 | 0.00 | 29 | 1019.0 |
| 20260503185956 | 58 | 295 | 1.7 | 2.6 | 0.00 | 0.00 | 0.00 | 31 | 1019.0 |
| 20260503185452 | 57 | 282 | 3.5 | 3.5 | 0.00 | 0.00 | 0.00 | 30 | 1019.3 |
| 20260503184951 | 57 | 291 | 2.6 | 5.2 | 0.00 | 0.00 | 0.00 | 32 | 1019.3 |
| 20260503184448 | 57 | 285 | 1.7 | 2.6 | 0.00 | 0.00 | 0.00 | 30 | 1019.2 |
| 20260503183944 | 56 | 281 | 4.3 | 5.2 | 0.00 | 0.00 | 0.00 | 34 | 1019.3 |
| 20260503183441 | 57 | 197 | 0.9 | 7.0 | 0.00 | 0.00 | 0.00 | 32 | 1019.4 |
| 20260503182938 | 56 | 1 | 2.6 | 6.1 | 0.00 | 0.00 | 0.00 | 31 | 1019.6 |
| 20260503182437 | 56 | 301 | 3.5 | 3.5 | 0.00 | 0.00 | 0.00 | 31 | 1019.7 |
| 20260503181934 | 55 | 273 | 3.5 | 5.2 | 0.00 | 0.00 | 0.00 | 35 | 1019.6 |
| 20260503181431 | 57 | 340 | 1.7 | 2.6 | 0.00 | 0.00 | 0.00 | 31 | 1019.6 |
| 20260503180927 | 55 | 290 | 3.5 | 5.2 | 0.00 | 0.00 | 0.00 | 32 | 1019.7 |
| 20260503180427 | 55 | 249 | 2.6 | 5.2 | 0.00 | 0.00 | 0.00 | 34 | 1019.7 |
| 20260503175922 | 56 | 136 | 0.9 | 3.5 | 0.00 | 0.00 | 0.00 | 33 | 1019.6 |
| 20260503175420 | 54 | 327 | 2.6 | 5.2 | 0.00 | 0.00 | 0.00 | 40 | 1019.7 |
| 20260503174915 | 54 | 311 | 2.6 | 8.7 | 0.00 | 0.00 | 0.00 | 37 | 1019.9 |
| 20260503174415 | 55 | 305 | 1.7 | 5.2 | 0.00 | 0.00 | 0.00 | 37 | 1019.9 |
| 20260503173914 | 56 | 293 | 0.9 | 2.6 | 0.00 | 0.00 | 0.00 | 37 | 1019.9 |
| 20260503173411 | 53 | 290 | 0.0 | 0.9 | 0.00 | 0.00 | 0.00 | 35 | 1019.9 |
| 20260503172908 | 53 | 289 | 3.5 | 6.1 | 0.00 | 0.00 | 0.00 | 37 | 1020.0 |
| 20260503172405 | 54 | 342 | 1.7 | 5.2 | 0.00 | 0.00 | 0.00 | 32 | 1020.1 |
| 20260503171901 | 52 | 317 | 3.5 | 3.5 | 0.00 | 0.00 | 0.00 | 40 | 1020.1 |
| 20260503171358 | 54 | 325 | 1.7 | 2.6 | 0.00 | 0.00 | 0.00 | 37 | 1020.1 |
| 20260503170855 | 53 | 297 | 2.6 | 3.5 | 0.00 | 0.00 | 0.00 | 39 | 1020.3 |
| 20260503170352 | 54 | 313 | 1.7 | 3.5 | 0.00 | 0.00 | 0.00 | 37 | 1020.3 |
| 20260503150744 | 47 | 307 | 2.6 | 3.5 | 0.00 | 0.00 | 0.00 | 46 | 1021.3 |
| 20260503150240 | 46 | 309 | 3.5 | 3.5 | 0.00 | 0.00 | 0.00 | 46 | 1021.1 |
| 20260503140204 | 42 | 311 | 1.7 | 3.5 | 0.00 | 0.00 | 0.00 | 53 | 1021.1 |
| 20260503131134 | 38 | 298 | 2.6 | 2.6 | 0.00 | 0.00 | 0.00 | 69 | 1021.1 |
| 20260503130632 | 38 | 290 | 1.7 | 3.5 | 0.00 | 0.00 | 0.00 | 69 | 1021.0 |
| 20260503130129 | 38 | 303 | 1.7 | 2.6 | 0.00 | 0.00 | 0.00 | 70 | 1020.8 |
| 20260503110517 | 30 | 281 | 0.0 | 0.0 | 0.00 | 0.00 | 0.00 | 88 | 1019.4 |
| 20260503090356 | 33 | 298 | 0.0 | 0.9 | 0.00 | 0.00 | 0.00 | 84 | 1018.1 |
| 20260503081318 | 35 | 298 | 0.9 | 0.9 | 0.00 | 0.00 | 0.00 | 80 | 1017.5 |
| 20260503080814 | 35 | 298 | 0.9 | 0.9 | 0.00 | 0.00 | 0.00 | 79 | 1017.8 |
| 20260503080311 | 35 | 298 | 0.0 | 0.9 | 0.00 | 0.00 | 0.00 | 79 | 1017.7 |
| 20260503072747 | 37 | 298 | 0.0 | 0.9 | 0.00 | 0.00 | 0.00 | 76 | 1017.3 |
| 20260503072244 | 36 | 298 | 0.9 | 1.7 | 0.00 | 0.00 | 0.00 | 76 | 1017.2 |
| 20260503071740 | 36 | 298 | 0.0 | 1.7 | 0.00 | 0.00 | 0.00 | 78 | 1017.4 |
| 20260503071237 | 36 | 298 | 0.0 | 0.9 | 0.00 | 0.00 | 0.00 | 78 | 1017.1 |
| 20260503070733 | 36 | 302 | 0.9 | 0.9 | 0.00 | 0.00 | 0.00 | 80 | 1017.2 |
| 20260503070231 | 36 | 302 | 0.0 | 0.0 | 0.00 | 0.00 | 0.00 | 80 | 1017.1 |
| 20260503060150 | 35 | 302 | 0.0 | 0.0 | 0.00 | 0.00 | 0.00 | 81 | 1017.2 |
| 20260503054637 | 34 | 302 | 0.0 | 0.0 | 0.00 | 0.00 | 0.00 | 82 | 1017.1 |
| 20260503054135 | 35 | 302 | 0.0 | 0.0 | 0.00 | 0.00 | 0.00 | 82 | 1017.3 |
| 20260503053633 | 35 | 302 | 0.0 | 0.0 | 0.00 | 0.00 | 0.00 | 81 | 1017.2 |
| 20260503053131 | 35 | 302 | 0.0 | 0.0 | 0.00 | 0.00 | 0.00 | 81 | 1017.3 |
| 20260503052627 | 35 | 302 | 0.0 | 0.0 | 0.00 | 0.00 | 0.00 | 80 | 1017.2 |
| 20260503052124 | 35 | 302 | 0.0 | 0.0 | 0.00 | 0.00 | 0.00 | 80 | 1017.1 |
| 20260503051619 | 35 | 302 | 0.0 | 0.0 | 0.00 | 0.00 | 0.00 | 81 | 1017.2 |
| 20260503051117 | 36 | 302 | 0.0 | 0.0 | 0.00 | 0.00 | 0.00 | 80 | 1017.1 |
| 20260503050613 | 36 | 302 | 0.0 | 0.0 | 0.00 | 0.00 | 0.00 | 80 | 1017.2 |
| 20260503050111 | 36 | 302 | 0.0 | 0.0 | 0.00 | 0.00 | 0.00 | 80 | 1017.1 |
| 20260503045608 | 36 | 302 | 0.0 | 0.0 | 0.00 | 0.00 | 0.00 | 80 | 1017.1 |
| 20260503045105 | 36 | 302 | 0.0 | 0.0 | 0.00 | 0.00 | 0.00 | 82 | 1017.0 |
| 20260503044601 | 37 | 302 | 0.0 | 0.0 | 0.00 | 0.00 | 0.00 | 80 | 1017.0 |
| 20260503044059 | 37 | 302 | 0.0 | 0.0 | 0.00 | 0.00 | 0.00 | 77 | 1017.0 |
| 20260503043554 | 37 | 302 | 0.0 | 0.0 | 0.00 | 0.00 | 0.00 | 78 | 1017.0 |
| 20260503043051 | 37 | 302 | 0.0 | 0.0 | 0.00 | 0.00 | 0.00 | 77 | 1016.9 |
| 20260503042548 | 37 | 302 | 0.0 | 0.0 | 0.00 | 0.00 | 0.00 | 77 | 1016.9 |
| 20260503042044 | 37 | 302 | 0.0 | 0.0 | 0.00 | 0.00 | 0.00 | 81 | 1016.7 |
| 20260503041542 | 37 | 302 | 0.0 | 0.0 | 0.00 | 0.00 | 0.00 | 77 | 1016.8 |
| 20260503041039 | 37 | 302 | 0.0 | 0.0 | 0.00 | 0.00 | 0.00 | 77 | 1016.6 |
| 20260503040537 | 37 | 302 | 0.0 | 0.0 | 0.00 | 0.00 | 0.00 | 78 | 1016.8 |
| 20260503040034 | 37 | 302 | 0.0 | 0.0 | 0.00 | 0.00 | 0.00 | 76 | 1016.9 |
| 20260503035530 | 36 | 302 | 0.0 | 0.0 | 0.00 | 0.00 | 0.00 | 78 | 1016.7 |
| 20260503035028 | 36 | 302 | 0.0 | 0.0 | 0.00 | 0.00 | 0.00 | 81 | 1016.8 |
| 20260503034525 | 37 | 302 | 0.0 | 0.0 | 0.00 | 0.00 | 0.00 | 81 | 1016.5 |
| 20260503034022 | 37 | 302 | 0.0 | 0.0 | 0.00 | 0.00 | 0.00 | 77 | 1016.6 |